TimeHST,TemperatureF,Dew PointF,Humidity,Sea Level PressureIn,VisibilityMPH,Wind Direction,Wind SpeedMPH,Gust SpeedMPH,PrecipitationIn,Events,Conditions,WindDirDegrees,DateUTC
12:53 AM,72.0,66.0,81,30.02,10.0,ENE,3.5,-,N/A,,Clear,70,2013-10-10 10:53:00
1:53 AM,71.1,64.9,81,30.01,10.0,Variable,3.5,-,N/A,,Clear,0,2013-10-10 11:53:00
2:53 AM,71.1,64.9,81,29.99,10.0,Calm,Calm,-,N/A,,Clear,0,2013-10-10 12:53:00
3:53 AM,70.0,64.9,84,29.99,10.0,Calm,Calm,-,N/A,,Clear,0,2013-10-10 13:53:00
4:53 AM,70.0,64.0,81,30.00,10.0,Calm,Calm,-,N/A,,Clear,0,2013-10-10 14:53:00
5:53 AM,71.1,64.9,81,30.01,10.0,Calm,Calm,-,N/A,,Clear,0,2013-10-10 15:53:00
6:53 AM,72.0,66.0,81,30.02,10.0,Calm,Calm,-,N/A,,Overcast,0,2013-10-10 16:53:00
7:53 AM,77.0,66.0,69,30.03,10.0,Variable,4.6,-,N/A,,Clear,0,2013-10-10 17:53:00
8:53 AM,78.1,66.9,68,30.04,10.0,Variable,5.8,-,N/A,,Mostly Cloudy,0,2013-10-10 18:53:00
9:30 AM,80.6,66.2,61,30.02,10.0,ENE,9.2,-,N/A,,Mostly Cloudy,70,2013-10-10 19:30:00
9:53 AM,82.9,64.9,54,30.04,10.0,ENE,8.1,-,N/A,,Partly Cloudy,70,2013-10-10 19:53:00
10:53 AM,82.0,64.9,56,30.03,10.0,Variable,4.6,-,N/A,,Scattered Clouds,0,2013-10-10 20:53:00
11:53 AM,84.9,66.0,53,30.00,10.0,ESE,9.2,17.3,N/A,,Mostly Cloudy,110,2013-10-10 21:53:00
12:53 PM,84.9,68.0,57,29.98,10.0,SE,12.7,19.6,N/A,,Partly Cloudy,130,2013-10-10 22:53:00
1:53 PM,84.0,69.1,61,29.96,10.0,SE,11.5,18.4,N/A,,Partly Cloudy,130,2013-10-10 23:53:00
2:53 PM,82.0,69.1,65,29.96,10.0,ESE,12.7,20.7,N/A,,Clear,120,2013-10-11 00:53:00
3:53 PM,81.0,70.0,69,29.96,10.0,ESE,12.7,20.7,N/A,,Clear,120,2013-10-11 01:53:00
4:53 PM,82.0,66.0,58,29.95,10.0,East,4.6,-,N/A,,Partly Cloudy,90,2013-10-11 02:53:00
5:53 PM,80.1,66.0,62,29.97,10.0,Variable,4.6,-,N/A,,Clear,0,2013-10-11 03:53:00
6:53 PM,77.0,66.9,71,29.99,10.0,Calm,Calm,-,N/A,,Clear,0,2013-10-11 04:53:00
7:53 PM,75.0,66.0,73,30.01,10.0,Calm,Calm,-,N/A,,Clear,0,2013-10-11 05:53:00
8:53 PM,73.9,66.0,76,30.02,10.0,Calm,Calm,-,N/A,,Clear,0,2013-10-11 06:53:00
9:53 PM,73.0,66.0,79,30.02,10.0,Calm,Calm,-,N/A,,Clear,0,2013-10-11 07:53:00
10:49 PM,71.6,66.2,83,30.01,10.0,Calm,Calm,-,N/A,,Partly Cloudy,0,2013-10-11 08:49:00
10:53 PM,72.0,66.0,81,30.02,10.0,Calm,Calm,-,N/A,,Clear,0,2013-10-11 08:53:00
11:53 PM,72.0,66.0,81,30.02,10.0,Calm,Calm,-,N/A,,Clear,0,2013-10-11 09:53:00